NSZ4EV EKCH-EGKK

Flight info

Callsign NSZ4EV
Flight time 1h 43m
Altitude 36000
Route ODDON DCT TUSKA DCT LONAM DCT BINBO DCT AKOKO N866 BUKUT P7 BARMI
Aircraft B738/M-SDE3GHIJ1LRWXY/LB1

Departure

Time 2026-04-25 17:03
Airport Copenhagen Kastrup Airport (EKCH)

Arrival

Time 2026-04-25 18:46
Airport London Gatwick Airport (EGKK)
Time Latitude Longitude Altitude Speed Heading
2026-04-25 16:42 55.62879 12.64066 26 ft 0 kts 11°
2026-04-25 16:52 55.62856 12.64058 27 ft 2 kts 12°
2026-04-25 16:52 55.62840 12.64051 27 ft 2 kts 18°
2026-04-25 16:52 55.62826 12.64038 24 ft 2 kts 58°
2026-04-25 16:52 55.62822 12.64011 27 ft 2 kts 86°
2026-04-25 16:53 55.62829 12.63955 24 ft 2 kts 104°
2026-04-25 16:53 55.62832 12.63927 25 ft 2 kts 103°
2026-04-25 16:53 55.62836 12.63899 26 ft 2 kts 104°
2026-04-25 16:54 55.62839 12.63878 27 ft 1 kts 105°
2026-04-25 16:54 55.62840 12.63875 27 ft 0 kts 105°
2026-04-25 16:55 55.62835 12.63899 27 ft 5 kts 112°
2026-04-25 16:55 55.62805 12.63952 23 ft 8 kts 156°
2026-04-25 16:56 55.62747 12.63925 23 ft 10 kts 214°
2026-04-25 16:56 55.62681 12.63845 23 ft 13 kts 213°
2026-04-25 16:56 55.62593 12.63772 23 ft 15 kts 191°
2026-04-25 16:56 55.62488 12.63801 22 ft 16 kts 154°
2026-04-25 16:57 55.62405 12.63949 21 ft 19 kts 124°
2026-04-25 16:57 55.62380 12.64014 22 ft 19 kts 124°
2026-04-25 16:57 55.62257 12.64337 21 ft 14 kts 134°
2026-04-25 16:57 55.62196 12.64340 21 ft 9 kts 201°
2026-04-25 16:58 55.62139 12.64295 22 ft 10 kts 207°
2026-04-25 16:58 55.62048 12.64216 24 ft 19 kts 206°
2026-04-25 16:58 55.61928 12.64115 23 ft 19 kts 204°
2026-04-25 16:58 55.61815 12.64074 23 ft 13 kts 176°
2026-04-25 16:59 55.61748 12.64082 26 ft 0 kts 176°
2026-04-25 16:59 55.61746 12.64082 26 ft 0 kts 177°
2026-04-25 17:00 55.61741 12.64083 23 ft 1 kts 177°
2026-04-25 17:00 55.61712 12.64085 24 ft 9 kts 177°
2026-04-25 17:00 55.61642 12.64081 26 ft 10 kts 196°
2026-04-25 17:00 55.61586 12.64008 26 ft 10 kts 221°
2026-04-25 17:01 55.61571 12.63985 26 ft 0 kts 221°
2026-04-25 17:01 55.61567 12.63979 26 ft 1 kts 221°
2026-04-25 17:02 55.61558 12.63964 27 ft 3 kts 221°
2026-04-25 17:02 55.61465 12.63820 28 ft 47 kts 221°
2026-04-25 17:02 55.61037 12.63155 28 ft 114 kts 221°
2026-04-25 17:02 55.60304 12.62009 92 ft 162 kts 226°
2026-04-25 17:03 55.59429 12.60732 739 ft 163 kts 228°
2026-04-25 17:03 55.58566 12.59410 1523 ft 163 kts 233°
2026-04-25 17:03 55.57696 12.58059 2152 ft 178 kts 234°
2026-04-25 17:03 55.56707 12.56457 2437 ft 204 kts 238°
2026-04-25 17:04 55.56153 12.54205 2668 ft 203 kts 276°
2026-04-25 17:04 55.56341 12.51734 3222 ft 206 kts 284°
2026-04-25 17:04 55.56560 12.49101 3638 ft 225 kts 283°
2026-04-25 17:04 55.56780 12.46305 4415 ft 232 kts 283°
2026-04-25 17:05 55.57000 12.43472 5334 ft 233 kts 283°
2026-04-25 17:05 55.57450 12.37705 6987 ft 240 kts 283°
2026-04-25 17:05 55.57677 12.34776 7801 ft 243 kts 283°
2026-04-25 17:06 55.57909 12.31793 8629 ft 245 kts 283°
2026-04-25 17:06 55.58075 12.28787 9556 ft 247 kts 279°
2026-04-25 17:06 55.58177 12.25733 10264 ft 254 kts 279°
2026-04-25 17:06 55.58277 12.22513 10468 ft 278 kts 279°
2026-04-25 17:07 55.58383 12.19003 10860 ft 292 kts 278°
2026-04-25 17:07 55.58487 12.15400 11616 ft 294 kts 279°
2026-04-25 17:07 55.58588 12.11809 12589 ft 291 kts 279°
2026-04-25 17:07 55.58690 12.08236 13534 ft 291 kts 280°
2026-04-25 17:08 55.58794 12.04676 14354 ft 291 kts 280°
2026-04-25 17:08 55.58900 12.01096 15197 ft 291 kts 281°
2026-04-25 17:08 55.58999 11.97711 16024 ft 290 kts 281°
2026-04-25 17:08 55.59104 11.94151 16888 ft 291 kts 281°
2026-04-25 17:09 55.59209 11.90573 17729 ft 292 kts 282°
2026-04-25 17:09 55.59313 11.86989 18489 ft 293 kts 282°
2026-04-25 17:09 55.59418 11.83372 19109 ft 296 kts 282°
2026-04-25 17:09 55.59524 11.79713 19714 ft 300 kts 282°
2026-04-25 17:10 55.59631 11.75984 20169 ft 306 kts 283°
2026-04-25 17:10 55.59737 11.72205 20757 ft 310 kts 283°
2026-04-25 17:10 55.59842 11.68382 21400 ft 312 kts 283°
2026-04-25 17:10 55.59946 11.64538 22026 ft 315 kts 283°
2026-04-25 17:11 55.60050 11.60659 22601 ft 318 kts 283°
2026-04-25 17:11 55.60155 11.56721 23182 ft 322 kts 283°
2026-04-25 17:11 55.60259 11.52754 23678 ft 325 kts 283°
2026-04-25 17:11 55.60364 11.48754 24153 ft 327 kts 283°
2026-04-25 17:12 55.60467 11.44712 24615 ft 330 kts 283°
2026-04-25 17:12 55.60570 11.40653 25062 ft 333 kts 283°
2026-04-25 17:12 55.60621 11.37926 25339 ft 337 kts 281°
2026-04-25 17:12 55.60557 11.33720 25707 ft 346 kts 278°
2026-04-25 17:13 55.60410 11.29447 26112 ft 350 kts 278°
2026-04-25 17:13 55.60298 11.26605 26389 ft 352 kts 277°
2026-04-25 17:13 55.60071 11.20796 26841 ft 356 kts 278°
2026-04-25 17:13 55.59911 11.16374 27042 ft 363 kts 278°
2026-04-25 17:14 55.59752 11.11900 27454 ft 365 kts 278°
2026-04-25 17:14 55.59544 11.05959 28051 ft 366 kts 278°
2026-04-25 17:14 55.59439 11.02923 28312 ft 368 kts 278°
2026-04-25 17:14 55.59291 10.98633 28643 ft 371 kts 278°
2026-04-25 17:15 55.59134 10.94069 28995 ft 374 kts 278°
2026-04-25 17:15 55.58974 10.89471 29346 ft 376 kts 278°
2026-04-25 17:15 55.58810 10.84865 29804 ft 376 kts 278°
2026-04-25 17:15 55.58644 10.80262 30302 ft 373 kts 278°
2026-04-25 17:16 55.58479 10.75701 30703 ft 372 kts 278°
2026-04-25 17:16 55.58314 10.71121 31019 ft 374 kts 278°
2026-04-25 17:16 55.58137 10.66592 31357 ft 377 kts 276°
2026-04-25 17:16 55.57545 10.61905 31722 ft 396 kts 264°
2026-04-25 17:17 55.56618 10.57317 32134 ft 396 kts 263°
2026-04-25 17:17 55.55692 10.52752 32472 ft 397 kts 264°
2026-04-25 17:17 55.54773 10.48191 32794 ft 397 kts 264°
2026-04-25 17:17 55.53853 10.43594 33190 ft 397 kts 264°
2026-04-25 17:18 55.52938 10.39012 33560 ft 396 kts 264°
2026-04-25 17:18 55.52026 10.34427 33885 ft 396 kts 264°
2026-04-25 17:18 55.51117 10.29848 34138 ft 396 kts 264°
2026-04-25 17:18 55.50201 10.25244 34404 ft 397 kts 263°
2026-04-25 17:19 55.49286 10.20649 34657 ft 398 kts 263°
2026-04-25 17:19 55.48367 10.16041 34906 ft 398 kts 263°
2026-04-25 17:19 55.47445 10.11433 35152 ft 399 kts 263°
2026-04-25 17:19 55.46519 10.06814 35393 ft 400 kts 262°
2026-04-25 17:20 55.45587 10.02179 35578 ft 401 kts 262°
2026-04-25 17:20 55.44700 9.97766 35672 ft 406 kts 262°
2026-04-25 17:20 55.43755 9.93081 35886 ft 407 kts 262°
2026-04-25 17:20 55.42802 9.88373 35957 ft 410 kts 262°
2026-04-25 17:21 55.40875 9.78897 35970 ft 410 kts 261°
2026-04-25 17:21 55.38955 9.69547 35941 ft 403 kts 261°
2026-04-25 17:22 55.37374 9.61839 35983 ft 403 kts 261°
2026-04-25 17:22 55.35142 9.50987 36008 ft 405 kts 261°
2026-04-25 17:23 55.33214 9.41666 35945 ft 407 kts 261°
2026-04-25 17:23 55.31271 9.32322 36012 ft 408 kts 261°
2026-04-25 17:24 55.29311 9.22941 36027 ft 411 kts 261°
2026-04-25 17:24 55.27330 9.13505 36031 ft 413 kts 260°
2026-04-25 17:25 55.25329 9.04021 36023 ft 416 kts 260°
2026-04-25 17:25 55.23366 8.94759 36025 ft 417 kts 260°
2026-04-25 17:26 55.21336 8.85235 36021 ft 417 kts 260°
2026-04-25 17:26 55.19302 8.75735 35991 ft 416 kts 259°
2026-04-25 17:27 55.17281 8.66336 36032 ft 416 kts 259°
2026-04-25 17:27 55.15570 8.58402 36064 ft 416 kts 259°
2026-04-25 17:28 55.13188 8.47414 36067 ft 416 kts 259°
2026-04-25 17:28 55.11126 8.37950 36070 ft 417 kts 259°
2026-04-25 17:29 55.09055 8.28487 36079 ft 417 kts 259°
2026-04-25 17:29 55.06976 8.19030 36051 ft 417 kts 258°
2026-04-25 17:30 55.04891 8.09594 36075 ft 417 kts 258°
2026-04-25 17:30 55.02797 8.00150 36086 ft 418 kts 258°
2026-04-25 17:31 55.00747 7.90940 36055 ft 419 kts 257°
2026-04-25 17:31 54.98456 7.81572 36095 ft 423 kts 253°
2026-04-25 17:32 54.95911 7.72325 36121 ft 424 kts 253°
2026-04-25 17:32 54.93339 7.63076 36080 ft 425 kts 252°
2026-04-25 17:33 54.90779 7.53817 36116 ft 425 kts 252°
2026-04-25 17:33 54.88225 7.44557 36125 ft 425 kts 252°
2026-04-25 17:34 54.85661 7.35282 36130 ft 426 kts 252°
2026-04-25 17:34 54.83088 7.26009 36137 ft 427 kts 252°
2026-04-25 17:35 54.80521 7.16797 36135 ft 427 kts 252°
2026-04-25 17:35 54.77915 7.07474 36140 ft 427 kts 251°
2026-04-25 17:36 54.75388 6.98489 36147 ft 426 kts 250°
2026-04-25 17:36 54.72786 6.89266 36156 ft 425 kts 250°
2026-04-25 17:37 54.70202 6.80142 36154 ft 425 kts 250°
2026-04-25 17:37 54.67593 6.70964 36155 ft 425 kts 250°
2026-04-25 17:38 54.65405 6.63292 36165 ft 425 kts 250°
2026-04-25 17:38 54.62360 6.52662 36165 ft 425 kts 250°
2026-04-25 17:39 54.59733 6.43530 36157 ft 425 kts 249°
2026-04-25 17:39 54.57103 6.34420 36173 ft 423 kts 249°
2026-04-25 17:40 54.54473 6.25350 36177 ft 423 kts 249°
2026-04-25 17:40 54.51838 6.16295 36181 ft 423 kts 249°
2026-04-25 17:41 54.49199 6.07260 36193 ft 422 kts 248°
2026-04-25 17:41 54.46621 5.98468 36201 ft 422 kts 248°
2026-04-25 17:42 54.43971 5.89464 36190 ft 422 kts 248°
2026-04-25 17:42 54.41315 5.80473 36189 ft 422 kts 248°
2026-04-25 17:43 54.38653 5.71500 36206 ft 422 kts 248°
2026-04-25 17:43 54.36002 5.62593 36185 ft 422 kts 247°
2026-04-25 17:44 54.33323 5.53630 36206 ft 423 kts 247°
2026-04-25 17:44 54.30637 5.44673 36213 ft 423 kts 247°
2026-04-25 17:45 54.28831 5.38673 36209 ft 424 kts 247°
2026-04-25 17:45 54.25228 5.26742 36202 ft 425 kts 246°
2026-04-25 17:46 54.22506 5.17770 36216 ft 425 kts 246°
2026-04-25 17:46 54.19773 5.08795 36219 ft 426 kts 246°
2026-04-25 17:47 54.17055 4.99902 36220 ft 427 kts 246°
2026-04-25 17:47 54.14339 4.91051 36206 ft 428 kts 245°
2026-04-25 17:48 54.10184 4.77572 36220 ft 428 kts 245°
2026-04-25 17:49 54.07403 4.68592 36223 ft 428 kts 245°
2026-04-25 17:49 54.04621 4.59642 36230 ft 428 kts 245°
2026-04-25 17:50 54.02304 4.52214 36226 ft 427 kts 245°
2026-04-25 17:50 53.99052 4.41825 36231 ft 426 kts 245°
2026-04-25 17:51 53.96260 4.32939 36232 ft 426 kts 245°
2026-04-25 17:51 53.93468 4.24090 36230 ft 425 kts 245°
2026-04-25 17:52 53.90673 4.15259 36232 ft 424 kts 245°
2026-04-25 17:52 53.87885 4.06478 36229 ft 423 kts 245°
2026-04-25 17:53 53.85148 3.97966 36232 ft 422 kts 241°
2026-04-25 17:53 53.81332 3.90363 36237 ft 429 kts 223°
2026-04-25 17:54 53.76730 3.84060 36238 ft 429 kts 222°
2026-04-25 17:54 53.72088 3.77747 36242 ft 428 kts 222°
2026-04-25 17:55 53.67466 3.71400 36236 ft 428 kts 222°
2026-04-25 17:55 53.62854 3.65050 36248 ft 428 kts 222°
2026-04-25 17:56 53.58240 3.58709 36248 ft 428 kts 222°
2026-04-25 17:56 53.53827 3.52664 36256 ft 429 kts 221°
2026-04-25 17:57 53.49137 3.46258 36242 ft 429 kts 221°
2026-04-25 17:57 53.44513 3.39959 36249 ft 429 kts 221°
2026-04-25 17:58 53.39814 3.33769 36232 ft 432 kts 215°
2026-04-25 17:58 53.34501 3.29135 36245 ft 434 kts 208°
2026-04-25 17:59 53.29078 3.24665 36221 ft 434 kts 209°
2026-04-25 17:59 53.23681 3.20109 36226 ft 435 kts 209°
2026-04-25 18:00 53.19160 3.16271 36222 ft 435 kts 209°
2026-04-25 18:00 53.12951 3.11014 36229 ft 434 kts 209°
2026-04-25 18:01 53.07556 3.06474 36239 ft 434 kts 209°
2026-04-25 18:01 53.02161 3.01951 36238 ft 434 kts 208°
2026-04-25 18:02 52.96912 2.97560 36229 ft 433 kts 208°
2026-04-25 18:02 52.92445 2.93831 36241 ft 432 kts 208°
2026-04-25 18:03 52.87082 2.89366 36238 ft 431 kts 208°
2026-04-25 18:03 52.81729 2.84920 36240 ft 430 kts 208°
2026-04-25 18:04 52.76390 2.80498 36237 ft 429 kts 208°
2026-04-25 18:04 52.71058 2.76095 36236 ft 428 kts 208°
2026-04-25 18:05 52.65752 2.71724 36239 ft 427 kts 208°
2026-04-25 18:05 52.60422 2.67346 36236 ft 427 kts 208°
2026-04-25 18:06 52.55110 2.62995 36235 ft 426 kts 208°
2026-04-25 18:06 52.52450 2.60820 36124 ft 428 kts 208°
2026-04-25 18:06 52.49827 2.58678 35811 ft 425 kts 208°
2026-04-25 18:06 52.47184 2.56525 35400 ft 421 kts 208°
2026-04-25 18:07 52.44578 2.54405 35033 ft 416 kts 208°
2026-04-25 18:07 52.42000 2.52309 34637 ft 413 kts 208°
2026-04-25 18:07 52.39431 2.50223 34248 ft 410 kts 208°
2026-04-25 18:07 52.36887 2.48159 33803 ft 407 kts 208°
2026-04-25 18:08 52.34361 2.46113 33394 ft 403 kts 207°
2026-04-25 18:08 52.31858 2.44088 33006 ft 400 kts 207°
2026-04-25 18:08 52.29375 2.42082 32620 ft 396 kts 207°
2026-04-25 18:08 52.26915 2.40097 32237 ft 393 kts 207°
2026-04-25 18:09 52.24474 2.38130 31854 ft 390 kts 207°
2026-04-25 18:09 52.22054 2.36182 31504 ft 387 kts 207°
2026-04-25 18:09 52.19652 2.34251 31126 ft 384 kts 207°
2026-04-25 18:09 52.18035 2.32952 30881 ft 382 kts 207°
2026-04-25 18:10 52.14891 2.30430 30403 ft 379 kts 207°
2026-04-25 18:10 52.12537 2.28544 29983 ft 376 kts 207°
2026-04-25 18:10 52.10195 2.26671 29601 ft 373 kts 207°
2026-04-25 18:10 52.07884 2.24823 29226 ft 369 kts 207°
2026-04-25 18:11 52.05589 2.22992 28855 ft 365 kts 207°
2026-04-25 18:11 52.03312 2.21177 28470 ft 362 kts 207°
2026-04-25 18:11 52.01061 2.19384 28116 ft 359 kts 208°
2026-04-25 18:11 51.98837 2.17615 27740 ft 356 kts 208°
2026-04-25 18:12 51.96617 2.15851 27382 ft 353 kts 208°
2026-04-25 18:12 51.94418 2.14104 27019 ft 351 kts 208°
2026-04-25 18:12 51.92232 2.12371 26664 ft 348 kts 208°
2026-04-25 18:12 51.90062 2.10652 26311 ft 346 kts 208°
2026-04-25 18:13 51.87905 2.08945 25955 ft 344 kts 208°
2026-04-25 18:13 51.85761 2.07250 25608 ft 342 kts 208°
2026-04-25 18:13 51.83629 2.05566 25266 ft 340 kts 208°
2026-04-25 18:14 51.79395 2.02228 24580 ft 337 kts 208°
2026-04-25 18:14 51.77293 2.00574 24233 ft 335 kts 208°
2026-04-25 18:14 51.75315 1.99018 23913 ft 334 kts 208°
2026-04-25 18:14 51.73233 1.97381 23522 ft 333 kts 208°
2026-04-25 18:15 51.71154 1.95749 23136 ft 331 kts 208°
2026-04-25 18:15 51.69093 1.94133 22779 ft 329 kts 208°
2026-04-25 18:15 51.67043 1.92529 22422 ft 327 kts 208°
2026-04-25 18:15 51.65095 1.90704 22037 ft 322 kts 224°
2026-04-25 18:16 51.63576 1.88083 21669 ft 321 kts 231°
2026-04-25 18:16 51.62108 1.85336 21207 ft 326 kts 231°
2026-04-25 18:16 51.59095 1.79746 20323 ft 334 kts 231°
2026-04-25 18:17 51.57577 1.76962 19876 ft 336 kts 231°
2026-04-25 18:17 51.56030 1.74138 19419 ft 337 kts 231°
2026-04-25 18:17 51.54475 1.71308 18973 ft 338 kts 231°
2026-04-25 18:17 51.52919 1.68483 18522 ft 338 kts 231°
2026-04-25 18:18 51.51358 1.65652 18006 ft 339 kts 231°
2026-04-25 18:18 51.49797 1.62826 17517 ft 338 kts 231°
2026-04-25 18:18 51.48497 1.59808 17030 ft 334 kts 249°
2026-04-25 18:18 51.47731 1.56328 16641 ft 330 kts 253°
2026-04-25 18:19 51.46969 1.52856 16178 ft 330 kts 252°
2026-04-25 18:19 51.46188 1.49403 15738 ft 329 kts 252°
2026-04-25 18:19 51.45396 1.45957 15291 ft 329 kts 252°
2026-04-25 18:19 51.44604 1.42526 14852 ft 328 kts 252°
2026-04-25 18:20 51.43781 1.39115 14417 ft 329 kts 246°
2026-04-25 18:20 51.42404 1.36202 14166 ft 327 kts 225°
2026-04-25 18:20 51.40659 1.33928 13952 ft 321 kts 219°
2026-04-25 18:20 51.38880 1.31848 13766 ft 313 kts 218°
2026-04-25 18:21 51.37132 1.29847 13588 ft 305 kts 218°
2026-04-25 18:21 51.35424 1.27886 13423 ft 300 kts 218°
2026-04-25 18:21 51.33736 1.25931 13275 ft 298 kts 218°
2026-04-25 18:21 51.32059 1.23977 13125 ft 300 kts 218°
2026-04-25 18:22 51.30363 1.21990 12978 ft 304 kts 218°
2026-04-25 18:22 51.29789 1.21317 12926 ft 305 kts 218°
2026-04-25 18:22 51.26952 1.17986 12653 ft 303 kts 218°
2026-04-25 18:22 51.25257 1.15995 12493 ft 301 kts 218°
2026-04-25 18:23 51.23571 1.14015 12328 ft 300 kts 218°
2026-04-25 18:23 51.21898 1.12051 12176 ft 299 kts 218°
2026-04-25 18:23 51.20234 1.10098 12023 ft 298 kts 218°
2026-04-25 18:23 51.18556 1.08132 11866 ft 297 kts 218°
2026-04-25 18:24 51.16891 1.06180 11715 ft 297 kts 218°
2026-04-25 18:24 51.15229 1.04235 11568 ft 296 kts 218°
2026-04-25 18:24 51.13569 1.02294 11401 ft 296 kts 218°
2026-04-25 18:24 51.11907 1.00351 11251 ft 296 kts 218°
2026-04-25 18:25 51.10335 0.98516 11100 ft 296 kts 218°
2026-04-25 18:25 51.08676 0.96582 10955 ft 296 kts 218°
2026-04-25 18:25 51.07019 0.94653 10793 ft 295 kts 218°
2026-04-25 18:25 51.05545 0.92481 10622 ft 293 kts 238°
2026-04-25 18:26 51.04633 0.89641 10510 ft 284 kts 246°
2026-04-25 18:26 51.03810 0.86826 10352 ft 277 kts 246°
2026-04-25 18:26 51.03001 0.84094 10211 ft 271 kts 244°
2026-04-25 18:26 51.01797 0.81809 10041 ft 267 kts 216°
2026-04-25 18:27 51.00219 0.80418 9941 ft 260 kts 207°
2026-04-25 18:27 50.98582 0.79187 9835 ft 256 kts 207°
2026-04-25 18:27 50.97000 0.78020 9765 ft 254 kts 206°
2026-04-25 18:27 50.95402 0.76843 9720 ft 252 kts 206°
2026-04-25 18:28 50.93807 0.75669 9569 ft 255 kts 206°
2026-04-25 18:28 50.92183 0.74475 9408 ft 258 kts 206°
2026-04-25 18:28 50.90548 0.73274 9276 ft 260 kts 206°
2026-04-25 18:29 50.87306 0.70892 9215 ft 253 kts 206°
2026-04-25 18:29 50.85913 0.69279 9200 ft 248 kts 237°
2026-04-25 18:30 50.86785 0.61769 9222 ft 249 kts 293°
2026-04-25 18:30 50.87399 0.59221 9230 ft 248 kts 290°
2026-04-25 18:30 50.87972 0.56651 9232 ft 247 kts 290°
2026-04-25 18:30 50.88515 0.54085 9218 ft 247 kts 288°
2026-04-25 18:31 50.88982 0.51450 9019 ft 252 kts 286°
2026-04-25 18:31 50.89443 0.48753 8819 ft 253 kts 286°
2026-04-25 18:31 50.89897 0.46081 8599 ft 250 kts 286°
2026-04-25 18:31 50.90343 0.43435 8399 ft 247 kts 286°
2026-04-25 18:32 50.90757 0.40968 8287 ft 247 kts 286°
2026-04-25 18:32 50.91202 0.38290 8251 ft 245 kts 286°
2026-04-25 18:32 50.91627 0.35698 8244 ft 241 kts 286°
2026-04-25 18:32 50.92044 0.33130 8234 ft 240 kts 286°
2026-04-25 18:33 50.92459 0.30567 8242 ft 241 kts 286°
2026-04-25 18:33 50.92880 0.27974 8251 ft 245 kts 285°
2026-04-25 18:33 50.93312 0.25351 8242 ft 246 kts 286°
2026-04-25 18:33 50.93744 0.22735 8233 ft 245 kts 285°
2026-04-25 18:34 50.94177 0.20156 8234 ft 244 kts 286°
2026-04-25 18:34 50.94619 0.17520 8231 ft 244 kts 286°
2026-04-25 18:34 50.95050 0.14928 8237 ft 243 kts 286°
2026-04-25 18:34 50.95476 0.12334 8225 ft 243 kts 286°
2026-04-25 18:35 50.95895 0.09771 8225 ft 243 kts 285°
2026-04-25 18:35 50.96329 0.07170 8226 ft 244 kts 286°
2026-04-25 18:35 50.96767 0.04570 8230 ft 244 kts 286°
2026-04-25 18:35 50.97207 0.01959 8220 ft 245 kts 286°
2026-04-25 18:36 50.97625 -0.00518 8215 ft 246 kts 286°
2026-04-25 18:36 50.98068 -0.03143 8212 ft 246 kts 286°
2026-04-25 18:36 50.98510 -0.05766 8158 ft 247 kts 285°
2026-04-25 18:36 50.98964 -0.08438 7890 ft 252 kts 286°
2026-04-25 18:37 50.99417 -0.11112 7549 ft 250 kts 286°
2026-04-25 18:37 50.99861 -0.13781 7186 ft 250 kts 286°
2026-04-25 18:37 51.00301 -0.16443 6816 ft 249 kts 285°
2026-04-25 18:37 51.00743 -0.19091 6450 ft 248 kts 285°
2026-04-25 18:38 51.01184 -0.21727 6061 ft 246 kts 286°
2026-04-25 18:38 51.01611 -0.24355 5688 ft 245 kts 286°
2026-04-25 18:38 51.02029 -0.26972 5303 ft 243 kts 286°
2026-04-25 18:38 51.02438 -0.29553 5058 ft 238 kts 286°
2026-04-25 18:39 51.02831 -0.32080 5027 ft 234 kts 286°
2026-04-25 18:39 51.03217 -0.34581 5029 ft 233 kts 286°
2026-04-25 18:39 51.03602 -0.37075 5006 ft 229 kts 286°
2026-04-25 18:39 51.03982 -0.39528 4692 ft 228 kts 286°
2026-04-25 18:40 51.04360 -0.41977 4306 ft 228 kts 285°
2026-04-25 18:40 51.04740 -0.44419 3942 ft 227 kts 286°
2026-04-25 18:40 51.05158 -0.46793 3692 ft 220 kts 296°
2026-04-25 18:40 51.06120 -0.48565 3423 ft 210 kts 332°
2026-04-25 18:41 51.07483 -0.49067 3188 ft 198 kts
2026-04-25 18:41 51.08686 -0.48211 2953 ft 188 kts 40°
2026-04-25 18:41 51.09647 -0.46856 2711 ft 183 kts 40°
2026-04-25 18:41 51.10594 -0.45533 2478 ft 179 kts 42°
2026-04-25 18:42 51.11283 -0.43921 2197 ft 178 kts 73°
2026-04-25 18:42 51.11383 -0.43304 2165 ft 178 kts 75°
2026-04-25 18:42 51.11884 -0.40224 2022 ft 165 kts 76°
2026-04-25 18:42 51.12137 -0.38471 2020 ft 162 kts 77°
2026-04-25 18:43 51.12379 -0.36723 2029 ft 162 kts 76°
2026-04-25 18:43 51.12620 -0.34962 2010 ft 165 kts 77°
2026-04-25 18:43 51.12869 -0.33158 1828 ft 168 kts 77°
2026-04-25 18:43 51.13119 -0.31335 1602 ft 168 kts 77°
2026-04-25 18:44 51.13366 -0.29535 1372 ft 165 kts 78°
2026-04-25 18:44 51.13611 -0.27760 1150 ft 163 kts 78°
2026-04-25 18:44 51.13849 -0.26036 936 ft 156 kts 79°
2026-04-25 18:44 51.14075 -0.24399 745 ft 151 kts 79°
2026-04-25 18:45 51.14289 -0.22851 649 ft 137 kts 79°
2026-04-25 18:45 51.14504 -0.21309 335 ft 150 kts 80°
2026-04-25 18:45 51.14724 -0.19737 221 ft 136 kts 80°
2026-04-25 18:45 51.14876 -0.18605 212 ft 81 kts 79°
2026-04-25 18:46 51.14951 -0.18097 209 ft 25 kts 71°
2026-04-25 18:46 51.15023 -0.17875 211 ft 16 kts 56°
2026-04-25 18:46 51.15059 -0.17801 215 ft 6 kts 45°
2026-04-25 18:46 51.15107 -0.17762 209 ft 8 kts
2026-04-25 18:47 51.15156 -0.17771 208 ft 8 kts 353°
2026-04-25 18:47 51.15193 -0.17777 204 ft 2 kts 353°
2026-04-25 18:47 51.15197 -0.17777 204 ft 2 kts
2026-04-25 18:47 51.15201 -0.17778 204 ft 0 kts 354°
2026-04-25 18:48 51.15203 -0.17778 209 ft 2 kts 354°
2026-04-25 18:48 51.15250 -0.17761 208 ft 10 kts 44°
2026-04-25 18:48 51.15275 -0.17657 213 ft 10 kts 77°
2026-04-25 18:49 51.15288 -0.17550 215 ft 10 kts 79°
2026-04-25 18:49 51.15300 -0.17444 207 ft 10 kts 78°
2026-04-25 18:49 51.15339 -0.17366 204 ft 9 kts 37°
2026-04-25 18:49 51.15371 -0.17280 210 ft 9 kts 71°
2026-04-25 18:50 51.15384 -0.17218 204 ft 9 kts 72°
2026-04-25 18:50 51.15412 -0.17097 210 ft 9 kts 76°
2026-04-25 18:50 51.15422 -0.17029 211 ft 3 kts 76°
2026-04-25 18:50 51.15443 -0.17018 207 ft 4 kts 349°
2026-04-25 18:51 51.15459 -0.17024 206 ft 4 kts 348°
2026-04-25 18:51 51.15475 -0.17029 204 ft 3 kts 348°
2026-04-25 18:51 51.15477 -0.17030 204 ft 0 kts 348°